[[{"header":{"parameterUnit":"m.s-1","parameterCategory":1,"la1":30.2991,"la2":30.254,"lo1":-89.0895,"lo2":-89.0444,"dy":0.0017,"dx":0.0017,"nx":28,"ny":28,"refTime":"2025-09-12T21:00:00:Z","depth":0,"parameterNumber":2,"parameterNumberName":"U-component_of_WINDS"},"data":[0,0,0,0,0,0,0,0,0,0,0,0,0,0,0,0,0,0,0,0,0,0,0,0,0,0,0,0,0,0,0,0,0,0,0,0,0,0,0,0,0,0,0,0,0,0,0,0,0,0,0,0,0,0,0,0,0,0,-1.2879,-1.2879,0,-1.2861,-1.2861,-1.286,-1.28,-1.2799,-1.2798,-1.2796,-1.2779,-1.278,-1.278,0,0,0,0,0,0,0,0,0,0,0,0,0,-1.2863,-1.2864,-1.2879,-1.2879,-1.2878,-1.2861,-1.2861,-1.286,-1.2801,-1.2799,-1.2797,-1.2796,-1.2779,-1.278,-1.2781,0,0,0,0,0,0,0,0,0,0,0,0,0,-1.286,-1.2864,-1.2879,-1.2847,-1.2843,-1.2861,-1.2861,-1.286,-1.2801,-1.2799,-1.2797,-1.2795,-1.2778,-1.2779,-1.2781,-1.2828,0,0,-1.2784,-1.2785,0,0,0,0,0,0,0,0,-1.286,-1.2861,-1.2852,-1.2849,-1.2845,-1.2831,-1.2848,-1.285,-1.2802,-1.2817,-1.2796,-1.2794,-1.2798,-1.2797,-1.2798,-1.2827,-1.2827,-1.2784,-1.2785,-1.2786,-1.2786,0,0,0,0,0,0,0,-1.2861,-1.2861,-1.2872,-1.2852,-1.2848,-1.2833,-1.2831,-1.2848,-1.2819,-1.2816,-1.2811,-1.281,-1.2796,-1.2797,-1.2797,-1.2826,-1.2784,-1.2785,-1.2786,-1.2787,-1.2895,-1.2897,0,0,0,0,0,0,-1.2865,-1.2862,-1.2872,-1.2871,-1.2848,-1.2835,-1.2832,-1.2838,-1.2819,-1.2814,-1.2812,-1.2807,-1.2796,-1.2796,-1.2797,-1.2852,-1.2786,-1.2787,-1.2787,-1.2893,-1.2895,-1.2898,0,0,0,0,0,0,-1.2865,-1.2867,-1.2873,-1.2865,-1.2865,-1.2838,-1.2844,-1.2838,-1.284,-1.2816,-1.281,-1.2819,-1.2795,-1.2795,-1.2821,-1.2851,-1.2787,-1.2788,-1.289,-1.2893,-1.2896,-1.2963,0,0,0,0,0,0,-1.2865,-1.2867,-1.2885,-1.2866,-1.2866,-1.2898,-1.2846,-1.2839,-1.2842,-1.2836,-1.2821,-1.2816,-1.2793,-1.282,-1.2822,-1.2851,-1.2789,-1.2887,-1.2892,-1.2895,-1.2958,-1.2968,-1.2977,0,0,0,0,0,-1.2865,-1.2904,-1.2886,-1.2887,-1.2887,-1.2899,-1.2899,-1.2871,-1.2844,-1.2862,-1.2847,-1.2817,-1.2847,-1.2823,-1.2825,-1.2855,-1.2885,-1.289,-1.2895,-1.2954,-1.2966,-1.2977,0,0,0,0,0,0,-1.2927,-1.2901,-1.2881,-1.2915,-1.291,-1.2889,-1.2911,-1.2885,-1.2888,-1.2882,-1.2848,-1.2845,-1.2876,-1.2868,-1.2842,-1.2901,-1.2861,-1.2867,-1.2905,-1.2917,-1.2926,-1.2928,-1.279,0,0,0,0,0,-1.2945,-1.2957,-1.2933,-1.2966,-1.2965,-1.2938,-1.2943,-1.2922,-1.2915,-1.2913,-1.2899,-1.2894,-1.2903,-1.2909,-1.2915,-1.2956,-1.2953,-1.2978,-1.2988,-1.2995,-1.3001,-1.3024,-1.3035,-1.2914,-1.2914,-1.2914,0,0,-1.2981,-1.2969,-1.2978,-1.2978,-1.2972,-1.2986,-1.2937,-1.2953,-1.2963,-1.2915,-1.2939,-1.2929,-1.2922,-1.2956,-1.297,-1.295,-1.3034,-1.3002,-1.3008,-1.3009,-1.303,-1.3041,-1.3052,-1.2917,-1.2916,-1.2916,0,0,-1.3056,-1.3047,-1.3074,-1.3069,-1.3059,-1.3042,-1.3048,-1.3032,-1.3023,-1.3047,-1.3011,-1.3023,-1.3038,-1.3034,-1.3034,-1.3108,-1.3081,-1.3111,-1.316,-1.3183,-1.3192,-1.3201,-1.3229,-1.3239,-1.3116,-1.3117,-1.3117,0,-1.3103,-1.3122,-1.3091,-1.311,-1.3112,-1.3068,-1.3096,-1.3092,-1.3086,-1.3088,-1.3065,-1.3084,-1.3075,-1.3109,-1.3127,-1.3128,-1.3135,-1.3113,-1.3193,-1.3202,-1.3209,-1.3235,-1.3246,-1.312,-1.312,-1.3119,-1.3119,0,-1.3181,-1.3195,-1.3218,-1.3213,-1.3217,-1.324,-1.3213,-1.3221,-1.32,-1.3185,-1.321,-1.3199,-1.3202,-1.3208,-1.3188,-1.324,-1.3227,-1.3199,-1.3159,-1.3225,-1.3249,-1.3259,-1.3126,-1.3124,-1.3123,-1.3122,0,0,-1.3295,-1.3273,-1.3282,-1.328,-1.3267,-1.3277,-1.3299,-1.3302,-1.331,-1.3307,-1.3325,-1.3339,-1.3314,-1.3314,-1.3292,-1.3312,-1.3373,-1.3282,-1.3281,-1.33,-1.3431,-1.3454,-1.3466,-1.3355,-1.3356,-1.3358,-1.3432,0,-1.3367,-1.3403,-1.3376,-1.3416,-1.343,-1.3389,-1.3408,-1.3402,-1.3389,-1.3399,-1.3383,-1.3395,-1.3359,-1.3359,-1.3376,-1.3362,-1.3399,-1.3356,-1.3372,-1.3373,-1.3377,-1.3478,-1.3501,-1.3572,-1.3441,-1.3443,-1.3444,0,-1.3456,-1.3457,-1.3499,-1.3485,-1.3489,-1.3507,-1.3508,-1.3518,-1.3511,-1.35,-1.3501,-1.3474,-1.3495,-1.3455,-1.3484,-1.3455,-1.346,-1.3454,-1.3456,-1.3458,-1.3414,-1.3484,-1.3594,-1.3606,-1.3458,-1.3457,-1.3456,0,-1.3537,-1.3549,-1.3576,-1.3575,-1.3558,-1.3572,-1.3565,-1.3556,-1.3561,-1.3562,-1.3565,-1.3569,-1.3571,-1.3575,-1.3551,-1.3524,-1.3584,-1.3541,-1.3577,-1.3577,-1.3592,-1.3592,-1.3707,-1.3593,-1.3593,-1.3593,-1.3592,0,-1.3621,-1.3648,-1.3612,-1.3629,-1.366,-1.3628,-1.3659,-1.3648,-1.3641,-1.3656,-1.362,-1.3635,-1.3601,-1.3613,-1.3594,-1.3622,-1.3623,-1.3615,-1.361,-1.3619,-1.3621,-1.3623,-1.3618,-1.3595,-1.3595,-1.3594,-1.3594,0,-1.3716,-1.3693,-1.372,-1.3702,-1.3698,-1.3722,-1.3706,-1.3722,-1.3706,-1.3725,-1.3728,-1.3703,-1.3715,-1.3691,-1.3699,-1.3686,-1.3726,-1.3712,-1.3729,-1.3725,-1.3763,-1.376,-1.3885,-1.39,-1.3775,-1.3776,-1.3777,0,-1.3772,-1.3793,-1.3777,-1.3785,-1.378,-1.3792,-1.3797,-1.3766,-1.3773,-1.3767,-1.3783,-1.3792,-1.3797,-1.3818,-1.3801,-1.3808,-1.3795,-1.3838,-1.3796,-1.3805,-1.3798,-1.3798,-1.38,-1.3848,-1.3849,-1.385,-1.3851,0,-1.3875,-1.3863,-1.387,-1.3874,-1.388,-1.3882,-1.3881,-1.3889,-1.3857,-1.3866,-1.3877,-1.3882,-1.389,-1.39,-1.3903,-1.3896,-1.387,-1.3864,-1.3873,-1.3884,-1.3893,-1.389,-1.3754,-1.3862,-1.3861,-1.386,-1.386,-1.3859,-1.3954,-1.3971,-1.3963,-1.3972,-1.3969,-1.3969,-1.3983,-1.3969,-1.3978,-1.3983,-1.3964,-1.398,-1.3974,-1.3975,-1.3971,-1.3984,-1.3965,-1.3977,-1.3981,-1.3985,-1.3992,-1.389,-1.3984,-1.3984,-1.3983,-1.3983,-1.3983,0,-1.4056,-1.4049,-1.4058,-1.4058,-1.4066,-1.4039,-1.4037,-1.4046,-1.406,-1.4056,-1.4063,-1.4077,-1.4086,-1.407,-1.4077,-1.409,-1.4078,-1.4093,-1.4093,-1.4092,-1.4007,-1.4,-1.4103,-1.4103,-1.4103,-1.4103,-1.4103,-1.4103,-1.411,-1.4138,-1.4125,-1.4151,-1.4143,-1.4159,-1.416,-1.416,-1.4157,-1.4175,-1.4182,-1.4171,-1.4163,-1.4169,-1.4177,-1.4172,-1.4177,-1.4197,-1.4188,-1.411,-1.4098,-1.4087,-1.408,-1.4198,-1.4198,-1.4272,-1.4273,-1.4274]},{"header":{"parameterUnit":"m.s-1","parameterCategory":1,"la1":30.2991,"la2":30.254,"lo1":-89.0895,"lo2":-89.0444,"dy":0.0017,"dx":0.0017,"nx":28,"ny":28,"refTime":"2025-09-12T21:00:00:Z","depth":0,"parameterNumber":3,"parameterNumberName":"V-component_of_WINDS"},"data":[0,0,0,0,0,0,0,0,0,0,0,0,0,0,0,0,0,0,0,0,0,0,0,0,0,0,0,0,0,0,0,0,0,0,0,0,0,0,0,0,0,0,0,0,0,0,0,0,0,0,0,0,0,0,0,0,0,0,-1.0585,-1.0585,0,-1.0633,-1.0634,-1.0635,-1.0647,-1.0647,-1.0646,-1.0646,-1.0695,-1.0696,-1.0698,0,0,0,0,0,0,0,0,0,0,0,0,0,-1.0501,-1.0503,-1.0585,-1.0585,-1.0586,-1.0633,-1.0634,-1.0635,-1.0647,-1.0647,-1.0646,-1.0646,-1.0694,-1.0696,-1.0698,0,0,0,0,0,0,0,0,0,0,0,0,0,-1.0543,-1.0503,-1.0585,-1.0598,-1.0599,-1.0633,-1.0634,-1.0635,-1.0647,-1.0647,-1.0646,-1.0646,-1.0694,-1.0696,-1.0698,-1.0722,0,0,-1.0706,-1.0707,0,0,0,0,0,0,0,0,-1.054,-1.0546,-1.0595,-1.0597,-1.0599,-1.0634,-1.0623,-1.0664,-1.0647,-1.0629,-1.0646,-1.0645,-1.0675,-1.0679,-1.0689,-1.0724,-1.0727,-1.0706,-1.0707,-1.0708,-1.0709,0,0,0,0,0,0,0,-1.0537,-1.0544,-1.0604,-1.0596,-1.0598,-1.0601,-1.0606,-1.0631,-1.0654,-1.063,-1.0631,-1.0637,-1.0676,-1.0686,-1.069,-1.0727,-1.0706,-1.0708,-1.0709,-1.071,-1.0785,-1.0786,0,0,0,0,0,0,-1.0532,-1.0541,-1.0602,-1.0605,-1.0568,-1.0603,-1.0609,-1.0623,-1.0654,-1.0658,-1.0637,-1.0637,-1.0683,-1.0687,-1.0692,-1.0722,-1.0708,-1.071,-1.0712,-1.0785,-1.0785,-1.0786,0,0,0,0,0,0,-1.0531,-1.0538,-1.06,-1.0574,-1.0582,-1.0605,-1.062,-1.0624,-1.0635,-1.0659,-1.0663,-1.0644,-1.0682,-1.0688,-1.0715,-1.0724,-1.0712,-1.0714,-1.0784,-1.0785,-1.0786,-1.0782,0,0,0,0,0,0,-1.0528,-1.0537,-1.0546,-1.0574,-1.0583,-1.0623,-1.0621,-1.0625,-1.0639,-1.064,-1.0666,-1.067,-1.0683,-1.0711,-1.0717,-1.0727,-1.0716,-1.0783,-1.0784,-1.0785,-1.0782,-1.0783,-1.0784,0,0,0,0,0,-1.0525,-1.0543,-1.0547,-1.0554,-1.0596,-1.0623,-1.0629,-1.0643,-1.064,-1.0649,-1.0665,-1.0669,-1.0722,-1.0714,-1.072,-1.0731,-1.0783,-1.0784,-1.0785,-1.0781,-1.0783,-1.0784,0,0,0,0,0,0,-1.0516,-1.0547,-1.0551,-1.0579,-1.0598,-1.0625,-1.0638,-1.0644,-1.0664,-1.0664,-1.068,-1.0686,-1.0711,-1.0724,-1.0714,-1.0756,-1.0752,-1.0755,-1.0747,-1.0748,-1.075,-1.0746,-1.0718,0,0,0,0,0,-1.0517,-1.0537,-1.0563,-1.0585,-1.0595,-1.0615,-1.0627,-1.0636,-1.0657,-1.0665,-1.0683,-1.0702,-1.0723,-1.0736,-1.0757,-1.0784,-1.079,-1.0794,-1.0795,-1.0796,-1.0798,-1.0814,-1.0816,-1.079,-1.079,-1.079,0,0,-1.052,-1.0539,-1.0551,-1.0584,-1.06,-1.062,-1.0621,-1.0643,-1.0658,-1.0668,-1.0694,-1.0708,-1.0731,-1.0757,-1.077,-1.0769,-1.0807,-1.0798,-1.0798,-1.08,-1.0815,-1.0818,-1.082,-1.0791,-1.0791,-1.0791,0,0,-1.0535,-1.0552,-1.0572,-1.0589,-1.0613,-1.0626,-1.0631,-1.0657,-1.0667,-1.0693,-1.0701,-1.072,-1.0755,-1.0771,-1.0784,-1.0806,-1.0811,-1.0812,-1.0818,-1.0833,-1.0835,-1.0837,-1.0844,-1.0847,-1.0814,-1.0814,-1.0814,0,-1.0535,-1.0567,-1.0582,-1.0603,-1.0617,-1.0628,-1.0648,-1.0663,-1.0693,-1.0703,-1.0701,-1.0746,-1.0762,-1.0793,-1.0798,-1.0808,-1.0814,-1.0809,-1.0833,-1.0835,-1.0837,-1.0845,-1.0848,-1.0814,-1.0814,-1.0814,-1.0814,0,-1.0566,-1.0587,-1.0601,-1.063,-1.0646,-1.0666,-1.0684,-1.0698,-1.0706,-1.0719,-1.0746,-1.0766,-1.0791,-1.0799,-1.0806,-1.0831,-1.0829,-1.083,-1.0827,-1.0839,-1.0847,-1.085,-1.0814,-1.0814,-1.0814,-1.0814,0,0,-1.0577,-1.0614,-1.0619,-1.0632,-1.066,-1.0677,-1.0698,-1.0723,-1.0735,-1.0755,-1.0773,-1.0803,-1.0805,-1.0819,-1.0829,-1.0842,-1.0858,-1.0841,-1.0842,-1.0844,-1.0886,-1.0885,-1.0888,-1.0861,-1.0862,-1.0862,-1.0884,0,-1.0595,-1.0634,-1.0648,-1.068,-1.07,-1.0711,-1.0729,-1.0748,-1.0761,-1.078,-1.0794,-1.0815,-1.0816,-1.0824,-1.0838,-1.0853,-1.0866,-1.0852,-1.0878,-1.0879,-1.0872,-1.0892,-1.0891,-1.091,-1.0887,-1.0887,-1.0888,0,-1.0623,-1.0644,-1.0677,-1.0703,-1.0712,-1.0729,-1.0753,-1.0771,-1.0793,-1.0801,-1.0818,-1.0826,-1.0849,-1.0844,-1.0875,-1.0865,-1.0876,-1.0886,-1.0887,-1.089,-1.0884,-1.0895,-1.0916,-1.0919,-1.0892,-1.0892,-1.0892,0,-1.0627,-1.0664,-1.0689,-1.07,-1.0731,-1.0742,-1.0756,-1.0777,-1.0791,-1.0812,-1.0821,-1.0844,-1.0857,-1.0874,-1.0889,-1.0884,-1.0919,-1.0915,-1.0926,-1.0926,-1.0933,-1.0932,-1.0956,-1.094,-1.094,-1.094,-1.094,0,-1.0647,-1.0667,-1.0691,-1.0707,-1.073,-1.0746,-1.0768,-1.0782,-1.0801,-1.0819,-1.083,-1.0847,-1.0865,-1.0884,-1.0896,-1.092,-1.0925,-1.0932,-1.0935,-1.0932,-1.0931,-1.0939,-1.0938,-1.0941,-1.0941,-1.0941,-1.0941,0,-1.0655,-1.0673,-1.0701,-1.0728,-1.0735,-1.0751,-1.0774,-1.0789,-1.0803,-1.0826,-1.0832,-1.0853,-1.0876,-1.0893,-1.0922,-1.093,-1.0956,-1.0958,-1.0948,-1.095,-1.096,-1.0959,-1.099,-1.0995,-1.0976,-1.0976,-1.0976,0,-1.0667,-1.0682,-1.0712,-1.0725,-1.0738,-1.0759,-1.0774,-1.079,-1.0805,-1.0831,-1.0843,-1.0867,-1.0887,-1.0923,-1.0941,-1.0964,-1.0967,-1.0977,-1.097,-1.0966,-1.0967,-1.0966,-1.0968,-1.0977,-1.0977,-1.0978,-1.0978,0,-1.0685,-1.0693,-1.0713,-1.0737,-1.0755,-1.0774,-1.0794,-1.0804,-1.0824,-1.084,-1.0864,-1.0879,-1.091,-1.0933,-1.0958,-1.0971,-1.0978,-1.098,-1.0983,-1.098,-1.0973,-1.0977,-1.0951,-1.0979,-1.0979,-1.0978,-1.0978,-1.0978,-1.0695,-1.071,-1.0733,-1.0756,-1.0772,-1.0791,-1.0806,-1.0822,-1.0843,-1.0869,-1.0877,-1.0902,-1.0924,-1.0958,-1.0971,-1.0991,-1.099,-1.0996,-1.0997,-1.0998,-1.0998,-1.097,-1.0995,-1.0995,-1.0995,-1.0995,-1.0995,0,-1.0714,-1.0729,-1.075,-1.0778,-1.0796,-1.0801,-1.0823,-1.0838,-1.0859,-1.0879,-1.0899,-1.0926,-1.0949,-1.0969,-1.0993,-1.1005,-1.1008,-1.101,-1.1009,-1.1012,-1.0997,-1.0991,-1.1007,-1.1007,-1.1007,-1.1007,-1.1007,-1.1007,-1.0726,-1.0751,-1.0762,-1.0795,-1.081,-1.0835,-1.0847,-1.0864,-1.088,-1.0911,-1.093,-1.0943,-1.0963,-1.0988,-1.1009,-1.1015,-1.1023,-1.1024,-1.103,-1.1015,-1.1014,-1.1012,-1.1007,-1.1026,-1.1026,-1.1044,-1.1044,-1.1044]}]]